Weather in Kerch

Russia / Republic of Crimea     45°21′22″N   36°28′02″E
temp.,
°C
wind,
m/s
gust,
m/s
humid.,
%
clouds,
%
prec.,
mm/h
press.,
hPa
HPBL,
m
28 february, sun
sun2800:00+6n6993100 3.6 1017496
03:00+5nnw7989100 4.2 1017634
06:00+5nnw6885100 0.1 1018561
09:00+5nnw7885100 0.2 1019703
12:00+5nnw6878100 0.1 1020932
15:00+5nnw787494 0.3 10201002
18:00+4nnw688198 0.2 1021744
21:00+4nw578272 0.2 1022526
1 march, mon
mon100:00+4nw568098 0.1 1023580
03:00+4nw347484 0.1 1024524
06:00+3wnw347964 0.0 1024301
09:00+3nw348882 0.1 1026410
12:00+3n339394 0.3 1027300
15:00+4nne338096 0.5 1027446
18:00+4nne337742 0.0 1028449
21:00+3nne227654 0.0 1029362
2 march, tue
tue200:00+3nnw44802 0.0 1029338
03:00+3nnw34781 0.0 1030353
06:00+2nw33790 0.0 1029240
09:00+3wnw34659 0.0 1030442
12:00+5wnw556128 0.0 10291181
15:00+5wnw676131 0.0 10271144
18:00+6wsw796642 0.0 10251047
21:00+5w9126971 0.0 1025786
3 march, wed
wed300:00+4w8127875 0.0 1024619
03:00+5w7118387 0.0 1024581
06:00+5wnw7987100 0.1 1023697
09:00+5nw687999 0.1 1024652
12:00+6wnw787629 0.0 1024761
15:00+7nw797363 0.1 10241100
18:00+7nw676769 0.1 10251135
21:00+6wnw466653 0.1 1027321
4 march, thu
thu400:00+5nw45720 0.0 1028195
03:00+5nw33690 0.0 1028140
06:00+4nw12660 0.0 102881
09:00+5sw12590 0.0 1028150
12:00+7s34560 0.0 1027573
15:00+7ssw66640 0.0 1026685
18:00+7ssw68710 0.0 1024589
21:00+7ssw810740 0.0 1024613